Voltar ao catálogo

FENGYUN 1C DEB

AtivoSSO
NORAD 30151·DEBRIS·🇨🇳 China

Lançado May 10, 1999 de Taiyuan Satellite Launch Center

Loading…

Próximas Passagens (próximas 24 horas)

TLE

AtualizadoSource: Space-Track

Época: Sep 14, 2026, 06:56 UTC

1 30151U 99025TG  26257.28920372  .00000392  00000-0  34885-3 0  9995
2 30151  99.0649 260.9168 0161074 257.6757 114.7594 13.84913052990598

Acompanhe FENGYUN 1C DEB em tempo real com AllMySat

Download on the App Store